Year,Month,Day,Hour,Minute,Value (Times are PST for temperature in C)
2014,04,30,00,00,10.90
2014,04,30,00,01,10.90
2014,04,30,00,02,10.90
2014,04,30,00,03,10.90
2014,04,30,00,04,10.90
2014,04,30,00,05,10.90
2014,04,30,00,06,10.90
2014,04,30,00,07,10.90
2014,04,30,00,08,10.90
2014,04,30,00,09,10.90
2014,04,30,00,10,10.90
2014,04,30,00,11,10.90
2014,04,30,00,12,10.90
2014,04,30,00,13,10.90
2014,04,30,00,14,10.90
2014,04,30,00,15,10.90
2014,04,30,00,16,11.00
2014,04,30,00,17,11.00
2014,04,30,00,18,11.00
2014,04,30,00,19,11.00
2014,04,30,00,20,11.10
2014,04,30,00,21,11.10
2014,04,30,00,22,11.10
2014,04,30,00,23,11.10
2014,04,30,00,24,11.10
2014,04,30,00,25,11.10
2014,04,30,00,26,11.10
2014,04,30,00,27,11.10
2014,04,30,00,28,11.10
2014,04,30,00,29,11.10
2014,04,30,00,30,11.10
2014,04,30,00,31,11.00
2014,04,30,00,32,11.00
2014,04,30,00,33,11.00
2014,04,30,00,34,11.00
2014,04,30,00,35,11.00
2014,04,30,00,36,10.90
2014,04,30,00,37,10.90
2014,04,30,00,38,10.90
2014,04,30,00,39,10.90
2014,04,30,00,40,10.90
2014,04,30,00,41,10.90
2014,04,30,00,42,10.90
2014,04,30,00,43,10.90
2014,04,30,00,44,10.90
2014,04,30,00,45,10.90
2014,04,30,00,46,10.90
2014,04,30,00,47,10.90
2014,04,30,00,48,10.90
2014,04,30,00,49,10.90
2014,04,30,00,50,10.90
2014,04,30,00,51,10.90
2014,04,30,00,52,10.80
2014,04,30,00,53,10.80
2014,04,30,00,54,10.90
2014,04,30,00,55,10.90
2014,04,30,00,56,10.90
2014,04,30,00,57,10.90
2014,04,30,00,58,10.90
2014,04,30,00,59,10.90
2014,04,30,01,00,10.90
2014,04,30,01,01,10.90
2014,04,30,01,02,10.90
2014,04,30,01,03,10.90
2014,04,30,01,04,10.90
2014,04,30,01,05,10.90
2014,04,30,01,06,10.90
2014,04,30,01,07,10.90
2014,04,30,01,08,10.80
2014,04,30,01,09,10.80
2014,04,30,01,10,10.80
2014,04,30,01,11,10.80
2014,04,30,01,12,10.80
2014,04,30,01,13,10.80
2014,04,30,01,14,10.80
2014,04,30,01,15,10.80
2014,04,30,01,16,10.80
2014,04,30,01,17,10.80
2014,04,30,01,18,10.80
2014,04,30,01,19,10.80
2014,04,30,01,20,10.80
2014,04,30,01,21,10.80
2014,04,30,01,22,10.80
2014,04,30,01,23,10.80
2014,04,30,01,24,10.80
2014,04,30,01,25,10.80
2014,04,30,01,26,10.80
2014,04,30,01,27,10.80
2014,04,30,01,28,10.80
2014,04,30,01,29,10.80
2014,04,30,01,30,10.80
2014,04,30,01,31,10.80
2014,04,30,01,32,10.80
2014,04,30,01,33,10.80
2014,04,30,01,34,10.80
2014,04,30,01,35,10.80
2014,04,30,01,36,10.80
2014,04,30,01,37,10.80
2014,04,30,01,38,10.80
2014,04,30,01,39,10.80
2014,04,30,01,40,10.80
2014,04,30,01,41,10.80
2014,04,30,01,42,10.80
2014,04,30,01,43,10.80
2014,04,30,01,44,10.80
2014,04,30,01,45,10.80
2014,04,30,01,46,10.80
2014,04,30,01,47,10.80
2014,04,30,01,48,10.80
2014,04,30,01,49,10.70
2014,04,30,01,50,10.70
2014,04,30,01,51,10.70
2014,04,30,01,52,10.70
2014,04,30,01,53,10.70
2014,04,30,01,54,10.70
2014,04,30,01,55,10.70
2014,04,30,01,56,10.70
2014,04,30,01,57,10.70
2014,04,30,01,58,10.70
2014,04,30,01,59,10.70
2014,04,30,02,00,10.70
2014,04,30,02,01,10.70
2014,04,30,02,02,10.70
2014,04,30,02,03,10.70
2014,04,30,02,04,10.70
2014,04,30,02,05,10.70
2014,04,30,02,06,10.70
2014,04,30,02,07,10.70
2014,04,30,02,08,10.70
2014,04,30,02,09,10.70
2014,04,30,02,10,10.70
2014,04,30,02,11,10.70
2014,04,30,02,12,10.70
2014,04,30,02,13,10.70
2014,04,30,02,14,10.70
2014,04,30,02,15,10.70
2014,04,30,02,16,10.70
2014,04,30,02,17,10.70
2014,04,30,02,18,10.70
2014,04,30,02,19,10.70
2014,04,30,02,20,10.70
2014,04,30,02,21,10.70
2014,04,30,02,22,10.70
2014,04,30,02,23,10.70
2014,04,30,02,24,10.70
2014,04,30,02,25,10.70
2014,04,30,02,26,10.70
2014,04,30,02,27,10.70
2014,04,30,02,28,10.70
2014,04,30,02,29,10.70
2014,04,30,02,30,10.70
2014,04,30,02,31,10.70
2014,04,30,02,32,10.70
2014,04,30,02,33,10.70
2014,04,30,02,34,10.70
2014,04,30,02,35,10.60
2014,04,30,02,36,10.60
2014,04,30,02,37,10.60
2014,04,30,02,38,10.60
2014,04,30,02,39,10.60
2014,04,30,02,40,10.60
2014,04,30,02,41,10.50
2014,04,30,02,42,10.50
2014,04,30,02,43,10.50
2014,04,30,02,44,10.50
2014,04,30,02,45,10.50
2014,04,30,02,46,10.40
2014,04,30,02,47,10.40
2014,04,30,02,48,10.40
2014,04,30,02,49,10.40
2014,04,30,02,50,10.40
2014,04,30,02,51,10.40
2014,04,30,02,52,10.40
2014,04,30,02,53,10.40
2014,04,30,02,54,10.40
2014,04,30,02,55,10.40
2014,04,30,02,56,10.30
2014,04,30,02,57,10.30
2014,04,30,02,58,10.30
2014,04,30,02,59,10.30
2014,04,30,03,00,10.30
2014,04,30,03,01,10.30
2014,04,30,03,02,10.30
2014,04,30,03,03,10.30
2014,04,30,03,04,10.40
2014,04,30,03,05,10.40
2014,04,30,03,06,10.40
2014,04,30,03,07,10.40
2014,04,30,03,08,10.40
2014,04,30,03,09,10.40
2014,04,30,03,10,10.40
2014,04,30,03,11,10.40
2014,04,30,03,12,10.40
2014,04,30,03,13,10.40
2014,04,30,03,14,10.40
2014,04,30,03,15,10.50
2014,04,30,03,16,10.50
2014,04,30,03,17,10.50
2014,04,30,03,18,10.50
2014,04,30,03,19,10.50
2014,04,30,03,20,10.50
2014,04,30,03,21,10.50
2014,04,30,03,22,10.40
2014,04,30,03,23,10.40
2014,04,30,03,24,10.40
2014,04,30,03,25,10.40
2014,04,30,03,26,10.40
2014,04,30,03,27,10.40
2014,04,30,03,28,10.40
2014,04,30,03,29,10.40
2014,04,30,03,30,10.40
2014,04,30,03,31,10.40
2014,04,30,03,32,10.40
2014,04,30,03,33,10.40
2014,04,30,03,34,10.40
2014,04,30,03,35,10.40
2014,04,30,03,36,10.40
2014,04,30,03,37,10.40
2014,04,30,03,38,10.40
2014,04,30,03,39,10.40
2014,04,30,03,40,10.40
2014,04,30,03,41,10.40
2014,04,30,03,42,10.40
2014,04,30,03,43,10.40
2014,04,30,03,44,10.40
2014,04,30,03,45,10.40
2014,04,30,03,46,10.40
2014,04,30,03,47,10.40
2014,04,30,03,48,10.40
2014,04,30,03,49,10.40
2014,04,30,03,50,10.40
2014,04,30,03,51,10.40
2014,04,30,03,52,10.40
2014,04,30,03,53,10.40
2014,04,30,03,54,10.40
2014,04,30,03,55,10.40
2014,04,30,03,56,10.50
2014,04,30,03,57,10.50
2014,04,30,03,58,10.50
2014,04,30,03,59,10.50
2014,04,30,04,00,10.50
2014,04,30,04,01,10.50
2014,04,30,04,02,10.50
2014,04,30,04,03,10.60
2014,04,30,04,04,10.60
2014,04,30,04,05,10.60
2014,04,30,04,06,10.60
2014,04,30,04,07,10.60
2014,04,30,04,08,10.60
2014,04,30,04,09,10.60
2014,04,30,04,10,10.60
2014,04,30,04,11,10.60
2014,04,30,04,12,10.60
2014,04,30,04,13,10.50
2014,04,30,04,14,10.50
2014,04,30,04,15,10.50
2014,04,30,04,16,10.50
2014,04,30,04,17,10.40
2014,04,30,04,18,10.40
2014,04,30,04,19,10.40
2014,04,30,04,20,10.40
2014,04,30,04,21,10.40
2014,04,30,04,22,10.30
2014,04,30,04,23,10.30
2014,04,30,04,24,10.30
2014,04,30,04,25,10.30
2014,04,30,04,26,10.30
2014,04,30,04,27,10.30
2014,04,30,04,28,10.20
2014,04,30,04,29,10.20
2014,04,30,04,30,10.20
2014,04,30,04,31,10.20
2014,04,30,04,32,10.20
2014,04,30,04,33,10.20
2014,04,30,04,34,10.20
2014,04,30,04,35,10.10
2014,04,30,04,36,10.10
2014,04,30,04,37,10.10
2014,04,30,04,38,10.10
2014,04,30,04,39,10.10
2014,04,30,04,40,10.10
2014,04,30,04,41,10.10
2014,04,30,04,42,10.10
2014,04,30,04,43,10.10
2014,04,30,04,44,10.10
2014,04,30,04,45,10.10
2014,04,30,04,46,10.10
2014,04,30,04,47,10.10
2014,04,30,04,48,10.10
2014,04,30,04,49,10.10
2014,04,30,04,50,10.10
2014,04,30,04,51,10.10
2014,04,30,04,52,10.00
2014,04,30,04,53,10.00
2014,04,30,04,54,10.00
2014,04,30,04,55,10.00
2014,04,30,04,56,9.90
2014,04,30,04,57,9.90
2014,04,30,04,58,9.90
2014,04,30,04,59,9.90
2014,04,30,05,00,9.90
2014,04,30,05,01,9.90
2014,04,30,05,02,9.80
2014,04,30,05,03,9.80
2014,04,30,05,04,9.80
2014,04,30,05,05,9.80
2014,04,30,05,06,9.80
2014,04,30,05,07,9.80
2014,04,30,05,08,9.80
2014,04,30,05,09,9.80
2014,04,30,05,10,9.80
2014,04,30,05,11,9.80
2014,04,30,05,12,9.80
2014,04,30,05,13,9.80
2014,04,30,05,14,9.80
2014,04,30,05,15,9.80
2014,04,30,05,16,9.80
2014,04,30,05,17,9.70
2014,04,30,05,18,9.70
2014,04,30,05,19,9.70
2014,04,30,05,20,9.70
2014,04,30,05,21,9.70
2014,04,30,05,22,9.70
2014,04,30,05,23,9.70
2014,04,30,05,24,9.70
2014,04,30,05,25,9.60
2014,04,30,05,26,9.60
2014,04,30,05,27,9.60
2014,04,30,05,28,9.60
2014,04,30,05,29,9.60
2014,04,30,05,30,9.60
2014,04,30,05,31,9.60
2014,04,30,05,32,9.60
2014,04,30,05,33,9.70
2014,04,30,05,34,9.70
2014,04,30,05,35,9.70
2014,04,30,05,36,9.70
2014,04,30,05,37,9.70
2014,04,30,05,38,9.70
2014,04,30,05,39,9.70
2014,04,30,05,40,9.70
2014,04,30,05,41,9.70
2014,04,30,05,42,9.70
2014,04,30,05,43,9.80
2014,04,30,05,44,9.80
2014,04,30,05,45,9.80
2014,04,30,05,46,9.80
2014,04,30,05,47,9.80
2014,04,30,05,48,9.80
2014,04,30,05,49,9.80
2014,04,30,05,50,9.80
2014,04,30,05,51,9.80
2014,04,30,05,52,9.80
2014,04,30,05,53,9.80
2014,04,30,05,54,9.80
2014,04,30,05,55,9.80
2014,04,30,05,56,9.80
2014,04,30,05,57,9.80
2014,04,30,05,58,9.70
2014,04,30,05,59,9.70
2014,04,30,06,00,9.70
2014,04,30,06,01,9.70
2014,04,30,06,02,9.70
2014,04,30,06,03,9.70
2014,04,30,06,04,9.70
2014,04,30,06,05,9.70
2014,04,30,06,06,9.70
2014,04,30,06,07,9.70
2014,04,30,06,08,9.70
2014,04,30,06,09,9.70
2014,04,30,06,10,9.70
2014,04,30,06,11,9.70
2014,04,30,06,12,9.70
2014,04,30,06,13,9.70
2014,04,30,06,14,9.70
2014,04,30,06,15,9.70
2014,04,30,06,16,9.70
2014,04,30,06,17,9.70
2014,04,30,06,18,9.70
2014,04,30,06,19,9.70
2014,04,30,06,20,9.70
2014,04,30,06,21,9.70
2014,04,30,06,22,9.70
2014,04,30,06,23,9.70
2014,04,30,06,24,9.70
2014,04,30,06,25,9.70
2014,04,30,06,26,9.70
2014,04,30,06,27,9.60
2014,04,30,06,28,9.60
2014,04,30,06,29,9.60
2014,04,30,06,30,9.60
2014,04,30,06,31,9.60
2014,04,30,06,32,9.70
2014,04,30,06,33,9.70
2014,04,30,06,34,9.70
2014,04,30,06,35,9.70
2014,04,30,06,36,9.70
2014,04,30,06,37,9.70
2014,04,30,06,38,9.70
2014,04,30,06,39,9.70
2014,04,30,06,40,9.70
2014,04,30,06,41,9.80
2014,04,30,06,42,9.80
2014,04,30,06,43,9.80
2014,04,30,06,44,9.80
2014,04,30,06,45,9.80
2014,04,30,06,46,9.80
2014,04,30,06,47,9.80
2014,04,30,06,48,9.80
2014,04,30,06,49,9.80
2014,04,30,06,50,9.80
2014,04,30,06,51,9.80
2014,04,30,06,52,9.80
2014,04,30,06,53,9.80
2014,04,30,06,54,9.80
2014,04,30,06,55,9.80
2014,04,30,06,56,9.80
2014,04,30,06,57,9.80
2014,04,30,06,58,9.80
2014,04,30,06,59,9.80
2014,04,30,07,00,9.80
2014,04,30,07,01,9.80
2014,04,30,07,02,9.80
2014,04,30,07,03,9.90
2014,04,30,07,04,9.90
2014,04,30,07,05,9.90
2014,04,30,07,06,9.90
2014,04,30,07,07,9.90
2014,04,30,07,08,10.00
2014,04,30,07,09,10.00
2014,04,30,07,10,10.00
2014,04,30,07,11,10.10
2014,04,30,07,12,10.10
2014,04,30,07,13,10.20
2014,04,30,07,14,10.20
2014,04,30,07,15,10.20
2014,04,30,07,16,10.30
2014,04,30,07,17,10.30
2014,04,30,07,18,10.30
2014,04,30,07,19,10.40
2014,04,30,07,20,10.40
2014,04,30,07,21,10.40
2014,04,30,07,22,10.50
2014,04,30,07,23,10.50
2014,04,30,07,24,10.60
2014,04,30,07,25,10.60
2014,04,30,07,26,10.60
2014,04,30,07,27,10.60
2014,04,30,07,28,10.60
2014,04,30,07,29,10.60
2014,04,30,07,30,10.60
2014,04,30,07,31,10.60
2014,04,30,07,32,10.60
2014,04,30,07,33,10.70
2014,04,30,07,34,10.70
2014,04,30,07,35,10.70
2014,04,30,07,36,10.70
2014,04,30,07,37,10.70
2014,04,30,07,38,10.80
2014,04,30,07,39,10.80
2014,04,30,07,40,10.80
2014,04,30,07,41,10.80
2014,04,30,07,42,10.80
2014,04,30,07,43,10.80
2014,04,30,07,44,10.90
2014,04,30,07,45,10.90
2014,04,30,07,46,10.90
2014,04,30,07,47,10.90
2014,04,30,07,48,11.00
2014,04,30,07,49,11.00
2014,04,30,07,50,11.10
2014,04,30,07,51,11.10
2014,04,30,07,52,11.10
2014,04,30,07,53,11.20
2014,04,30,07,54,11.20
2014,04,30,07,55,11.20
2014,04,30,07,56,11.20
2014,04,30,07,57,11.30
2014,04,30,07,58,11.30
2014,04,30,07,59,11.40
2014,04,30,08,00,11.40
2014,04,30,08,01,11.50
2014,04,30,08,02,11.50
2014,04,30,08,03,11.50
2014,04,30,08,04,11.60
2014,04,30,08,05,11.60
2014,04,30,08,06,11.60
2014,04,30,08,07,11.50
2014,04,30,08,08,11.50
2014,04,30,08,09,11.50
2014,04,30,08,10,11.50
2014,04,30,08,11,11.50
2014,04,30,08,12,11.60
2014,04,30,08,13,11.60
2014,04,30,08,14,11.70
2014,04,30,08,15,11.70
2014,04,30,08,16,11.80
2014,04,30,08,17,11.80
2014,04,30,08,18,11.90
2014,04,30,08,19,12.00
2014,04,30,08,20,12.10
2014,04,30,08,21,12.10
2014,04,30,08,22,12.10
2014,04,30,08,23,12.20
2014,04,30,08,24,12.20
2014,04,30,08,25,12.20
2014,04,30,08,26,12.30
2014,04,30,08,27,12.30
2014,04,30,08,28,12.30
2014,04,30,08,29,12.30
2014,04,30,08,30,12.30
2014,04,30,08,31,12.30
2014,04,30,08,32,12.30
2014,04,30,08,33,12.20
2014,04,30,08,34,12.20
2014,04,30,08,35,12.20
2014,04,30,08,36,12.20
2014,04,30,08,37,12.20
2014,04,30,08,38,12.20
2014,04,30,08,39,12.20
2014,04,30,08,40,12.20
2014,04,30,08,41,12.20
2014,04,30,08,42,12.20
2014,04,30,08,43,12.20
2014,04,30,08,44,12.20
2014,04,30,08,45,12.20
2014,04,30,08,46,12.20
2014,04,30,08,47,12.30
2014,04,30,08,48,12.30
2014,04,30,08,49,12.30
2014,04,30,08,50,12.40
2014,04,30,08,51,12.40
2014,04,30,08,52,12.40
2014,04,30,08,53,12.50
2014,04,30,08,54,12.50
2014,04,30,08,55,12.60
2014,04,30,08,56,12.60
2014,04,30,08,57,12.60
2014,04,30,08,58,12.70
2014,04,30,08,59,12.70
2014,04,30,09,00,12.70
2014,04,30,09,01,12.80
2014,04,30,09,02,12.80
2014,04,30,09,03,12.80
2014,04,30,09,04,12.80
2014,04,30,09,05,12.80
2014,04,30,09,06,12.80
2014,04,30,09,07,12.80
2014,04,30,09,08,12.70
2014,04,30,09,09,12.70
2014,04,30,09,10,12.70
2014,04,30,09,11,12.70
2014,04,30,09,12,12.70
2014,04,30,09,13,12.70
2014,04,30,09,14,12.70
2014,04,30,09,15,12.70
2014,04,30,09,16,12.80
2014,04,30,09,17,12.80
2014,04,30,09,18,12.80
2014,04,30,09,19,12.90
2014,04,30,09,20,12.90
2014,04,30,09,21,13.00
2014,04,30,09,22,13.10
2014,04,30,09,23,13.10
2014,04,30,09,24,13.10
2014,04,30,09,25,13.10
2014,04,30,09,26,13.20
2014,04,30,09,27,13.20
2014,04,30,09,28,13.30
2014,04,30,09,29,13.30
2014,04,30,09,30,13.30
2014,04,30,09,31,13.40
2014,04,30,09,32,13.40
2014,04,30,09,33,13.40
2014,04,30,09,34,13.40
2014,04,30,09,35,13.40
2014,04,30,09,36,13.40
2014,04,30,09,37,13.40
2014,04,30,09,38,13.40
2014,04,30,09,39,13.50
2014,04,30,09,40,13.50
2014,04,30,09,41,13.50
2014,04,30,09,42,13.50
2014,04,30,09,43,13.50
2014,04,30,09,44,13.40
2014,04,30,09,45,13.40
2014,04,30,09,46,13.40
2014,04,30,09,47,13.50
2014,04,30,09,48,13.50
2014,04,30,09,49,13.60
2014,04,30,09,50,13.60
2014,04,30,09,51,13.70
2014,04,30,09,52,13.70
2014,04,30,09,53,13.80
2014,04,30,09,54,13.80
2014,04,30,09,55,13.80
2014,04,30,09,56,13.90
2014,04,30,09,57,13.90
2014,04,30,09,58,13.90
2014,04,30,09,59,13.90
2014,04,30,10,00,14.00
2014,04,30,10,01,14.00
2014,04,30,10,02,14.10
2014,04,30,10,03,14.20
2014,04,30,10,04,14.20
2014,04,30,10,05,14.30
2014,04,30,10,06,14.40
2014,04,30,10,07,14.50
2014,04,30,10,08,14.50
2014,04,30,10,09,14.60
2014,04,30,10,10,14.60
2014,04,30,10,11,14.60
2014,04,30,10,12,14.60
2014,04,30,10,13,14.60
2014,04,30,10,14,14.60
2014,04,30,10,15,14.60
2014,04,30,10,16,14.50
2014,04,30,10,17,14.50
2014,04,30,10,18,14.60
2014,04,30,10,19,14.60
2014,04,30,10,20,14.60
2014,04,30,10,21,14.60
2014,04,30,10,22,14.70
2014,04,30,10,23,14.80
2014,04,30,10,24,14.80
2014,04,30,10,25,14.90
2014,04,30,10,26,14.90
2014,04,30,10,27,14.90
2014,04,30,10,28,15.00
2014,04,30,10,29,15.00
2014,04,30,10,30,15.10
2014,04,30,10,31,15.00
2014,04,30,10,32,15.00
2014,04,30,10,33,15.00
2014,04,30,10,34,15.00
2014,04,30,10,35,14.90
2014,04,30,10,36,14.90
2014,04,30,10,37,14.90
2014,04,30,10,38,14.90
2014,04,30,10,39,14.90
2014,04,30,10,40,14.90
2014,04,30,10,41,15.00
2014,04,30,10,42,15.00
2014,04,30,10,43,15.10
2014,04,30,10,44,15.00
2014,04,30,10,45,15.00
2014,04,30,10,46,15.00
2014,04,30,10,47,15.00
2014,04,30,10,48,15.10
2014,04,30,10,49,15.10
2014,04,30,10,50,15.20
2014,04,30,10,51,15.30
2014,04,30,10,52,15.40
2014,04,30,10,53,15.50
2014,04,30,10,54,15.60
2014,04,30,10,55,15.80
2014,04,30,10,56,15.90
2014,04,30,10,57,16.10
2014,04,30,10,58,16.30
2014,04,30,10,59,16.50
2014,04,30,11,00,16.60
2014,04,30,11,01,16.70
2014,04,30,11,02,16.80
2014,04,30,11,03,16.90
2014,04,30,11,04,16.90
2014,04,30,11,05,16.90
2014,04,30,11,06,16.90
2014,04,30,11,07,16.90
2014,04,30,11,08,16.90
2014,04,30,11,09,16.90
2014,04,30,11,10,16.90
2014,04,30,11,11,16.90
2014,04,30,11,12,16.80
2014,04,30,11,13,16.80
2014,04,30,11,14,16.80
2014,04,30,11,15,16.90
2014,04,30,11,16,17.00
2014,04,30,11,17,17.10
2014,04,30,11,18,17.00
2014,04,30,11,19,16.90
2014,04,30,11,20,16.80
2014,04,30,11,21,16.80
2014,04,30,11,22,16.70
2014,04,30,11,23,16.60
2014,04,30,11,24,16.50
2014,04,30,11,25,16.40
2014,04,30,11,26,16.30
2014,04,30,11,27,16.30
2014,04,30,11,28,16.30
2014,04,30,11,29,16.40
2014,04,30,11,30,16.50
2014,04,30,11,31,16.60
2014,04,30,11,32,16.70
2014,04,30,11,33,16.80
2014,04,30,11,34,16.90
2014,04,30,11,35,17.00
2014,04,30,11,36,17.10
2014,04,30,11,37,17.20
2014,04,30,11,38,17.30
2014,04,30,11,39,17.30
2014,04,30,11,40,17.40
2014,04,30,11,41,17.50
2014,04,30,11,42,17.60
2014,04,30,11,43,17.60
2014,04,30,11,44,17.70
2014,04,30,11,45,17.70
2014,04,30,11,46,17.80
2014,04,30,11,47,17.90
2014,04,30,11,48,17.90
2014,04,30,11,49,18.00
2014,04,30,11,50,18.10
2014,04,30,11,51,18.10
2014,04,30,11,52,18.20
2014,04,30,11,53,18.20
2014,04,30,11,54,18.30
2014,04,30,11,55,18.30
2014,04,30,11,56,18.30
2014,04,30,11,57,18.40
2014,04,30,11,58,18.40
2014,04,30,11,59,18.50
2014,04,30,12,00,18.50
2014,04,30,12,01,18.50
2014,04,30,12,02,18.60
2014,04,30,12,03,18.60
2014,04,30,12,04,18.60
2014,04,30,12,05,18.60
2014,04,30,12,06,18.60
2014,04,30,12,07,18.70
2014,04,30,12,08,18.70
2014,04,30,12,09,18.70
2014,04,30,12,10,18.80
2014,04,30,12,11,18.80
2014,04,30,12,12,18.80
2014,04,30,12,13,18.80
2014,04,30,12,14,18.90
2014,04,30,12,15,18.90
2014,04,30,12,16,18.90
2014,04,30,12,17,18.90
2014,04,30,12,18,18.90
2014,04,30,12,19,18.90
2014,04,30,12,20,18.90
2014,04,30,12,21,18.90
2014,04,30,12,22,18.90
2014,04,30,12,23,18.90
2014,04,30,12,24,18.90
2014,04,30,12,25,18.90
2014,04,30,12,26,18.80
2014,04,30,12,27,18.80
2014,04,30,12,28,18.80
2014,04,30,12,29,18.80
2014,04,30,12,30,18.80
2014,04,30,12,31,18.80
2014,04,30,12,32,18.70
2014,04,30,12,33,18.70
2014,04,30,12,34,18.70
2014,04,30,12,35,18.70
2014,04,30,12,36,18.70
2014,04,30,12,37,18.70
2014,04,30,12,38,18.70
2014,04,30,12,39,18.60
2014,04,30,12,40,18.60
2014,04,30,12,41,18.60
2014,04,30,12,42,18.70
2014,04,30,12,43,18.70
2014,04,30,12,44,18.70
2014,04,30,12,45,18.70
2014,04,30,12,46,18.60
2014,04,30,12,47,18.60
2014,04,30,12,48,18.50
2014,04,30,12,49,18.40
2014,04,30,12,50,18.30
2014,04,30,12,51,18.20
2014,04,30,12,52,18.10
2014,04,30,12,53,18.10
2014,04,30,12,54,18.10
2014,04,30,12,55,18.10
2014,04,30,12,56,18.10
2014,04,30,12,57,18.10
2014,04,30,12,58,18.10
2014,04,30,12,59,18.10
2014,04,30,13,00,18.20
2014,04,30,13,01,18.20
2014,04,30,13,02,18.20
2014,04,30,13,03,18.20
2014,04,30,13,04,18.30
2014,04,30,13,05,18.40
2014,04,30,13,06,18.50
2014,04,30,13,07,18.50
2014,04,30,13,08,18.60
2014,04,30,13,09,18.70
2014,04,30,13,10,18.80
2014,04,30,13,11,18.80
2014,04,30,13,12,18.90
2014,04,30,13,13,19.00
2014,04,30,13,14,19.10
2014,04,30,13,15,19.10
2014,04,30,13,16,19.20
2014,04,30,13,17,19.20
2014,04,30,13,18,19.20
2014,04,30,13,19,19.20
2014,04,30,13,20,19.20
2014,04,30,13,21,19.20
2014,04,30,13,22,19.20
2014,04,30,13,23,19.20
2014,04,30,13,24,19.20
2014,04,30,13,25,19.20
2014,04,30,13,26,19.20
2014,04,30,13,27,19.20
2014,04,30,13,28,19.20
2014,04,30,13,29,19.10
2014,04,30,13,30,19.10
2014,04,30,13,31,19.10
2014,04,30,13,32,19.00
2014,04,30,13,33,19.00
2014,04,30,13,34,19.00
2014,04,30,13,35,19.00
2014,04,30,13,36,19.00
2014,04,30,13,37,19.10
2014,04,30,13,38,19.10
2014,04,30,13,39,19.10
2014,04,30,13,40,19.10
2014,04,30,13,41,19.20
2014,04,30,13,42,19.20
2014,04,30,13,43,19.30
2014,04,30,13,44,19.30
2014,04,30,13,45,19.40
2014,04,30,13,46,19.40
2014,04,30,13,47,19.40
2014,04,30,13,48,19.40
2014,04,30,13,49,19.40
2014,04,30,13,50,19.50
2014,04,30,13,51,19.50
2014,04,30,13,52,19.50
2014,04,30,13,53,19.60
2014,04,30,13,54,19.60
2014,04,30,13,55,19.60
2014,04,30,13,56,19.50
2014,04,30,13,57,19.40
2014,04,30,13,58,19.30
2014,04,30,13,59,19.30
2014,04,30,14,00,19.30
2014,04,30,14,01,19.30
2014,04,30,14,02,19.30
2014,04,30,14,03,19.30
2014,04,30,14,04,19.40
2014,04,30,14,05,19.40
2014,04,30,14,06,19.40
2014,04,30,14,07,19.30
2014,04,30,14,08,19.30
2014,04,30,14,09,19.30
2014,04,30,14,10,19.30
2014,04,30,14,11,19.30
2014,04,30,14,12,19.30
2014,04,30,14,13,19.20
2014,04,30,14,14,19.20
2014,04,30,14,15,19.20
2014,04,30,14,16,19.20
2014,04,30,14,17,19.20
2014,04,30,14,18,19.30
2014,04,30,14,19,19.30
2014,04,30,14,20,19.30
2014,04,30,14,21,19.30
2014,04,30,14,22,19.20
2014,04,30,14,23,19.20
2014,04,30,14,24,19.20
2014,04,30,14,25,19.20
2014,04,30,14,26,19.20
2014,04,30,14,27,19.20
2014,04,30,14,28,19.20
2014,04,30,14,29,19.20
2014,04,30,14,30,19.30
2014,04,30,14,31,19.30
2014,04,30,14,32,19.40
2014,04,30,14,33,19.40
2014,04,30,14,34,19.40
2014,04,30,14,35,19.50
2014,04,30,14,36,19.50
2014,04,30,14,37,19.50
2014,04,30,14,38,19.40
2014,04,30,14,39,19.40
2014,04,30,14,40,19.30
2014,04,30,14,41,19.30
2014,04,30,14,42,19.30
2014,04,30,14,43,19.30
2014,04,30,14,44,19.30
2014,04,30,14,45,19.30
2014,04,30,14,46,19.30
2014,04,30,14,47,19.20
2014,04,30,14,48,19.20
2014,04,30,14,49,19.20
2014,04,30,14,50,19.20
2014,04,30,14,51,19.20
2014,04,30,14,52,19.20
2014,04,30,14,53,19.20
2014,04,30,14,54,19.20
2014,04,30,14,55,19.30
2014,04,30,14,56,19.30
2014,04,30,14,57,19.30
2014,04,30,14,58,19.30
2014,04,30,14,59,19.30
2014,04,30,15,00,19.30
2014,04,30,15,01,19.30
2014,04,30,15,02,19.40
2014,04,30,15,03,19.50
2014,04,30,15,04,19.60
2014,04,30,15,05,19.70
2014,04,30,15,06,19.70
2014,04,30,15,07,19.70
2014,04,30,15,08,19.80
2014,04,30,15,09,19.80
2014,04,30,15,10,19.80
2014,04,30,15,11,19.90
2014,04,30,15,12,19.90
2014,04,30,15,13,19.90
2014,04,30,15,14,19.90
2014,04,30,15,15,19.90
2014,04,30,15,16,19.90
2014,04,30,15,17,19.90
2014,04,30,15,18,19.90
2014,04,30,15,19,20.00
2014,04,30,15,20,20.00
2014,04,30,15,21,20.10
2014,04,30,15,22,20.10
2014,04,30,15,23,20.10
2014,04,30,15,24,20.10
2014,04,30,15,25,20.20
2014,04,30,15,26,20.20
2014,04,30,15,27,20.20
2014,04,30,15,28,20.20
2014,04,30,15,29,20.20
2014,04,30,15,30,20.20
2014,04,30,15,31,20.20
2014,04,30,15,32,20.20
2014,04,30,15,33,20.30
2014,04,30,15,34,20.40
2014,04,30,15,35,20.50
2014,04,30,15,36,20.50
2014,04,30,15,37,20.60
2014,04,30,15,38,20.60
2014,04,30,15,39,20.70
2014,04,30,15,40,20.80
2014,04,30,15,41,20.90
2014,04,30,15,42,21.00
2014,04,30,15,43,21.00
2014,04,30,15,44,21.00
2014,04,30,15,45,20.90
2014,04,30,15,46,20.90
2014,04,30,15,47,20.90
2014,04,30,15,48,20.90
2014,04,30,15,49,20.90
2014,04,30,15,50,20.90
2014,04,30,15,51,20.90
2014,04,30,15,52,20.90
2014,04,30,15,53,20.90
2014,04,30,15,54,20.80
2014,04,30,15,55,20.80
2014,04,30,15,56,20.80
2014,04,30,15,57,20.80
2014,04,30,15,58,20.80
2014,04,30,15,59,20.90
2014,04,30,16,00,21.00
2014,04,30,16,01,21.10
2014,04,30,16,02,21.20
2014,04,30,16,03,21.20
2014,04,30,16,04,21.30
2014,04,30,16,05,21.30
2014,04,30,16,06,21.20
2014,04,30,16,07,21.00
2014,04,30,16,08,20.70
2014,04,30,16,09,20.40
2014,04,30,16,10,20.30
2014,04,30,16,11,20.20
2014,04,30,16,12,20.10
2014,04,30,16,13,20.00
2014,04,30,16,14,19.90
2014,04,30,16,15,19.90
2014,04,30,16,16,19.80
2014,04,30,16,17,19.90
2014,04,30,16,18,20.00
2014,04,30,16,19,20.10
2014,04,30,16,20,20.30
2014,04,30,16,21,20.40
2014,04,30,16,22,20.50
2014,04,30,16,23,20.60
2014,04,30,16,24,20.70
2014,04,30,16,25,20.80
2014,04,30,16,26,20.90
2014,04,30,16,27,21.00
2014,04,30,16,28,21.10
2014,04,30,16,29,21.30
2014,04,30,16,30,21.40
2014,04,30,16,31,21.50
2014,04,30,16,32,21.50
2014,04,30,16,33,21.60
2014,04,30,16,34,21.70
2014,04,30,16,35,21.80
2014,04,30,16,36,21.90
2014,04,30,16,37,22.00
2014,04,30,16,38,22.00
2014,04,30,16,39,22.00
2014,04,30,16,40,21.90
2014,04,30,16,41,21.90
2014,04,30,16,42,21.90
2014,04,30,16,43,22.00
2014,04,30,16,44,21.90
2014,04,30,16,45,21.90
2014,04,30,16,46,21.90
2014,04,30,16,47,21.80
2014,04,30,16,48,21.80
2014,04,30,16,49,21.70
2014,04,30,16,50,21.70
2014,04,30,16,51,21.60
2014,04,30,16,52,21.60
2014,04,30,16,53,21.50
2014,04,30,16,54,21.60
2014,04,30,16,55,21.60
2014,04,30,16,56,21.70
2014,04,30,16,57,21.80
2014,04,30,16,58,21.80
2014,04,30,16,59,21.90
2014,04,30,17,00,21.90
2014,04,30,17,01,22.00
2014,04,30,17,02,22.10
2014,04,30,17,03,22.20
2014,04,30,17,04,22.20
2014,04,30,17,05,22.20
2014,04,30,17,06,22.20
2014,04,30,17,07,22.20
2014,04,30,17,08,22.30
2014,04,30,17,09,22.30
2014,04,30,17,10,22.30
2014,04,30,17,11,22.30
2014,04,30,17,12,22.30
2014,04,30,17,13,22.30
2014,04,30,17,14,22.30
2014,04,30,17,15,22.30
2014,04,30,17,16,22.40
2014,04,30,17,17,22.40
2014,04,30,17,18,22.40
2014,04,30,17,19,22.40
2014,04,30,17,20,22.30
2014,04,30,17,21,22.10
2014,04,30,17,22,22.00
2014,04,30,17,23,21.80
2014,04,30,17,24,21.60
2014,04,30,17,25,21.50